Wind_Speed
34 34 33 35 34 33 34 34 34 31 29 32 33 33 31 32 34 36 37 37 39 39 40 41 42 45 46 48 50 53 54 55 56 57 59 59 59 57 55 54 53 50 49 48
35 34 34 35 34 33 33 33 33 30 29 31 31 31 29 30 31 32 33 34 35 35 36 38 40 41 43 45 47 50 53 53 55 57 58 59 58 58 56 54 53 51 49 48
35 35 35 35 34 33 33 33 33 31 28 26 27 27 25 26 28 28 30 32 32 33 34 34 36 38 41 43 44 48 51 52 54 56 57 59 58 57 56 54 53 52 49 48
35 36 36 35 35 34 32 32 32 31 28 27 27 29 24 22 23 24 25 28 27 28 31 33 35 35 38 41 42 46 50 52 53 55 57 58 59 57 55 53 53 52 51 49
34 35 35 35 34 32 32 32 31 30 28 29 25 27 24 21 21 20 22 24 25 26 28 31 33 33 36 39 40 44 47 50 53 54 56 57 58 56 54 54 54 52 51 50
34 35 35 34 33 33 32 31 31 29 28 28 25 25 24 21 20 19 20 23 24 25 26 29 31 33 34 38 39 42 45 48 51 53 55 56 56 57 55 54 53 51 51 49
35 35 35 34 34 33 32 31 31 30 29 27 24 23 23 22 21 20 20 21 23 22 25 28 31 31 33 36 38 41 45 47 50 52 54 55 55 56 54 54 53 52 49 48
36 36 36 37 36 34 33 31 31 30 29 26 22 22 22 22 20 19 19 20 21 21 23 26 28 30 32 34 37 40 43 46 49 52 53 54 53 55 54 53 52 51 49 47
37 37 37 36 35 33 32 31 30 30 29 28 26 24 23 21 20 20 20 20 21 22 23 25 27 30 31 32 34 38 41 43 47 50 53 54 53 54 53 53 52 50 48 46
38 38 38 37 35 33 32 30 29 29 29 29 27 26 23 21 21 21 21 22 22 22 23 24 25 27 30 32 34 36 39 42 45 48 50 52 52 52 52 52 51 50 47 46
39 39 39 39 37 35 33 31 30 30 29 29 28 26 25 22 22 22 22 23 23 23 24 25 26 27 29 31 33 35 39 41 43 47 49 50 51 52 51 51 51 51 49 46
39 40 39 39 38 36 34 32 31 30 29 28 29 28 25 24 23 23 23 24 24 24 25 25 26 27 28 31 34 35 38 40 42 45 48 50 50 52 51 51 51 51 49 47
40 41 41 40 40 38 34 33 32 31 30 28 29 28 26 25 24 24 24 24 24 25 26 26 26 28 29 31 34 35 37 39 42 43 47 50 50 50 50 51 51 52 50 48
40 41 41 41 40 38 35 33 32 31 31 30 29 29 26 26 24 25 25 25 25 25 26 27 27 29 31 32 34 35 37 39 41 43 45 48 50 51 51 51 52 52 51 49
41 41 42 41 40 39 37 34 32 32 32 33 31 30 28 26 26 26 26 25 25 26 26 27 28 29 32 33 34 36 37 39 41 42 43 46 48 50 50 50 51 52 51 49
42 42 43 42 40 40 38 35 33 32 33 33 33 31 29 29 27 26 26 26 26 26 26 27 28 29 31 33 35 37 37 39 40 42 44 45 47 49 49 49 49 49 50 49
43 44 44 43 41 41 38 36 34 34 32 33 33 32 31 29 28 28 28 28 28 27 27 27 27 28 30 33 35 36 37 38 39 41 43 45 47 48 49 49 49 48 48 48
43 44 46 46 44 42 39 37 36 35 33 33 33 32 32 32 30 28 29 29 29 28 28 28 28 29 30 32 34 35 36 37 38 39 41 42 44 46 47 49 50 49 48 48
44 45 46 46 45 43 40 38 37 37 35 34 34 33 32 32 30 28 29 30 30 29 29 28 28 28 29 32 33 34 36 37 37 38 40 41 41 43 45 46 48 47 47 47
45 45 46 46 46 44 41 40 39 38 36 34 34 32 32 31 31 29 29 30 30 29 29 29 28 28 28 31 32 33 35 36 37 38 39 39 39 41 42 43 45 46 46 46
46 46 46 46 46 45 42 40 40 39 37 36 34 33 32 32 32 31 30 30 30 28 29 29 29 29 29 30 32 33 33 35 37 38 38 39 39 40 41 41 43 44 45 45
47 47 46 46 46 44 43 41 40 39 38 36 34 34 33 32 32 32 31 29 29 29 29 30 30 30 32 33 33 32 34 35 36 38 38 39 40 40 40 41 41 42 43 44
47 47 47 47 45 43 43 42 41 40 38 36 35 35 34 33 32 32 30 29 29 29 29 29 30 31 31 33 33 32 34 34 36 37 37 39 40 40 41 40 40 40 41 42
48 47 48 47 44 43 44 43 41 40 38 36 36 35 34 33 32 31 30 29 29 28 28 27 28 29 30 31 32 33 34 35 35 36 37 38 39 40 40 41 41 40 40 41
47 48 48 47 44 44 43 42 40 39 37 36 35 34 34 32 31 30 29 29 28 28 26 26 26 26 27 28 30 32 34 36 36 37 37 38 39 40 41 41 41 40 40 40
45 47 48 45 44 44 43 41 39 38 37 36 35 33 32 31 30 30 29 28 27 27 26 26 26 26 27 28 29 30 32 35 36 36 37 37 38 38 39 40 40 40 41 40
Wind_Direction
332 332 331 329 326 325 322 320 317 312 306 300 298 294 290 283 275 269 264 260 255 251 248 246 242 239 236 234 231 230 229 227 226 225 224 224 225 225 226 229 230 231 233 233
335 334 333 331 329 328 325 323 321 315 310 305 300 296 294 288 279 272 265 260 254 248 245 240 238 235 234 234 231 229 227 225 224 223 223 223 223 224 226 228 228 229 232 233
338 335 334 333 331 328 328 325 325 321 314 311 308 304 300 292 282 274 266 260 254 247 243 239 236 234 233 232 231 228 226 224 223 222 222 221 221 223 226 228 229 230 232 233
338 336 335 335 333 329 329 327 327 325 320 319 316 311 310 301 291 280 269 260 253 245 239 236 235 235 233 231 230 227 225 224 222 221 221 220 221 223 226 228 229 231 232 232
340 340 339 337 335 332 332 331 328 325 322 321 319 312 316 306 299 288 275 262 253 244 238 234 233 234 232 230 230 227 225 224 223 222 221 220 220 222 225 228 229 229 231 231
340 339 339 337 335 332 333 331 330 327 326 325 323 318 323 314 306 292 279 266 255 244 236 234 236 234 230 229 229 228 225 224 223 222 221 221 221 222 225 227 228 228 231 232
339 339 338 336 334 331 331 331 332 333 332 331 325 319 321 314 309 297 286 274 262 251 237 236 240 237 231 229 230 229 226 224 222 221 221 221 223 224 224 226 228 229 230 233
338 339 338 336 334 331 331 330 330 329 329 328 322 318 315 312 306 298 291 279 264 253 240 238 241 237 233 231 231 229 227 226 223 222 220 220 223 224 224 225 227 228 229 232
337 337 337 335 333 332 329 329 327 325 324 322 321 318 313 309 300 293 287 278 268 258 247 241 241 237 235 234 231 229 227 225 223 222 221 221 223 224 224 225 226 227 228 231
335 334 336 334 331 329 328 327 325 323 321 319 317 316 317 310 300 294 286 278 271 263 255 249 245 240 237 235 232 230 229 226 224 223 222 222 223 223 224 226 226 226 228 230
331 332 334 333 331 328 327 325 323 321 320 316 314 314 314 308 301 295 288 281 274 267 262 255 249 243 240 236 232 232 230 226 225 225 224 224 223 223 225 226 227 228 229 231
329 330 330 331 330 327 324 322 320 316 314 311 308 312 313 306 298 293 287 280 273 268 262 256 250 246 242 238 236 234 231 228 228 227 226 225 225 225 226 226 227 229 230 231
327 328 328 328 328 327 323 319 317 313 309 307 304 308 310 304 298 290 285 280 272 268 262 256 249 247 242 238 235 234 231 230 230 229 227 225 225 225 226 226 227 228 230 232
325 325 326 326 326 325 322 317 315 311 306 304 304 303 303 300 295 288 283 278 272 270 265 258 251 248 243 239 237 235 232 231 230 230 228 226 225 225 227 228 228 229 231 234
321 322 323 323 322 321 320 317 314 310 307 305 305 302 301 296 294 290 285 279 274 271 268 260 253 249 245 241 239 236 234 233 230 229 227 226 226 226 227 228 228 230 230 232
318 318 319 320 320 318 317 317 313 310 307 305 303 303 299 295 292 288 284 279 276 271 268 262 255 250 246 242 239 236 235 234 232 229 228 228 228 227 228 229 228 230 232 232
315 316 317 317 317 315 317 317 314 310 306 304 303 302 297 294 291 287 283 280 278 273 268 264 258 254 248 243 240 238 236 235 233 231 230 230 229 229 228 229 228 229 232 233
314 315 315 316 316 314 317 316 313 310 308 305 304 301 297 293 292 287 285 283 279 274 268 263 257 254 249 243 239 237 237 234 232 230 231 232 231 229 229 230 229 231 233 235
312 313 314 315 315 315 316 315 312 309 306 304 303 301 298 294 291 287 284 283 281 275 269 263 258 254 248 243 240 238 237 233 232 231 230 230 231 230 230 230 230 231 232 232
311 312 312 313 312 313 316 313 311 309 307 304 302 301 298 295 291 287 284 281 278 274 268 263 260 256 250 245 242 240 237 236 235 233 232 232 233 232 231 231 229 230 231 232
310 310 310 310 310 312 313 310 310 308 308 304 301 300 298 294 291 288 284 281 278 274 269 263 260 258 253 248 244 241 239 237 237 237 236 234 233 232 231 231 232 231 232 233
307 308 308 307 308 310 309 307 307 305 304 303 300 299 296 293 289 287 285 282 279 275 271 265 260 257 253 249 244 241 239 238 239 239 238 236 234 232 231 231 230 230 232 233
304 305 305 305 306 305 304 303 303 302 301 300 298 297 294 291 288 286 283 281 280 277 273 267 262 258 254 248 243 240 239 239 240 239 239 238 235 233 231 230 230 230 231 230
303 303 303 303 304 302 301 300 300 300 299 298 297 295 293 290 287 285 282 280 279 276 274 269 264 260 254 248 243 240 241 241 240 239 238 237 235 233 231 229 230 230 231 228
303 302 301 301 303 300 300 299 299 298 297 295 294 293 292 289 286 284 283 281 278 274 271 266 263 257 251 247 244 243 243 242 240 238 237 236 234 233 230 230 230 230 229 229
302 299 299 301 301 299 299 298 297 296 294 292 291 290 290 288 285 283 281 279 277 272 267 265 261 256 251 248 247 245 244 242 239 238 237 236 233 231 229 229 229 229 229 230
Height
5664 5659 5652 5646 5640 5634 5629 5625 5621 5618 5614 5610 5608 5606 5605 5603 5601 5601 5601 5602 5605 5608 5612 5616 5621 5626 5631 5638 5645 5652 5659 5668 5677 5686 5695 5704 5714 5722 5730 5737 5743 5750 5756 5761
5660 5654 5648 5641 5635 5629 5624 5619 5615 5613 5609 5604 5601 5599 5597 5594 5592 5592 5592 5593 5595 5598 5601 5605 5610 5615 5621 5627 5634 5640 5647 5656 5664 5674 5684 5694 5703 5712 5719 5726 5733 5740 5746 5752
5656 5651 5644 5637 5631 5626 5621 5615 5610 5606 5603 5600 5595 5593 5591 5588 5586 5585 5585 5585 5587 5589 5593 5597 5601 5607 5613 5618 5624 5630 5638 5645 5654 5663 5673 5683 5692 5701 5709 5716 5724 5731 5737 5743
5653 5646 5640 5634 5628 5622 5618 5612 5606 5601 5597 5594 5590 5585 5587 5583 5581 5579 5579 5579 5581 5584 5587 5591 5595 5599 5605 5611 5615 5622 5629 5637 5645 5653 5663 5672 5682 5691 5700 5708 5715 5722 5729 5735
5649 5643 5637 5631 5625 5619 5614 5608 5603 5598 5593 5590 5587 5581 5582 5579 5576 5575 5574 5575 5576 5578 5581 5585 5589 5593 5598 5603 5608 5614 5620 5628 5636 5644 5653 5663 5672 5682 5690 5698 5706 5712 5718 5725
5647 5640 5633 5628 5621 5615 5609 5605 5601 5596 5590 5587 5583 5578 5577 5575 5573 5571 5570 5570 5572 5574 5576 5580 5583 5586 5591 5596 5601 5607 5613 5620 5628 5636 5645 5654 5663 5672 5680 5688 5696 5702 5709 5716
5643 5637 5630 5624 5619 5613 5606 5601 5596 5591 5586 5584 5580 5576 5575 5572 5570 5568 5567 5567 5568 5570 5573 5575 5579 5581 5585 5589 5594 5599 5606 5612 5620 5628 5636 5646 5654 5662 5671 5679 5686 5693 5701 5708
5638 5634 5627 5620 5614 5609 5603 5597 5592 5587 5583 5580 5578 5575 5574 5570 5567 5566 5565 5564 5565 5566 5568 5570 5573 5576 5579 5583 5587 5592 5599 5605 5612 5620 5628 5637 5645 5653 5662 5670 5677 5685 5692 5700
5634 5630 5624 5616 5610 5605 5600 5594 5589 5584 5579 5576 5574 5572 5570 5567 5565 5563 5563 5562 5562 5563 5564 5566 5567 5570 5573 5576 5580 5586 5591 5598 5604 5612 5620 5628 5635 5644 5652 5660 5668 5676 5683 5690
5629 5625 5620 5614 5607 5602 5597 5592 5587 5581 5575 5571 5569 5568 5566 5563 5561 5560 5559 5558 5559 5559 5559 5561 5562 5564 5567 5571 5575 5579 5584 5590 5597 5603 5611 5619 5627 5635 5643 5651 5659 5667 5675 5681
5624 5619 5615 5609 5603 5597 5593 5588 5582 5577 5572 5568 5563 5566 5563 5560 5557 5556 5555 5554 5554 5554 5554 5555 5556 5559 5561 5564 5568 5572 5577 5583 5589 5595 5602 5610 5618 5626 5634 5643 5651 5659 5666 5673
5619 5614 5609 5605 5599 5593 5588 5583 5578 5574 5569 5564 5560 5562 5559 5555 5553 5551 5549 5549 5548 5549 5549 5550 5551 5553 5555 5558 5562 5565 5570 5575 5581 5587 5594 5602 5609 5617 5626 5634 5642 5650 5657 5664
5614 5608 5603 5598 5594 5588 5583 5578 5573 5569 5564 5560 5556 5557 5555 5551 5548 5546 5544 5543 5542 5542 5543 5544 5545 5547 5549 5552 5555 5558 5563 5568 5574 5579 5586 5593 5601 5609 5617 5625 5632 5640 5648 5655
5608 5603 5599 5594 5588 5582 5578 5574 5569 5564 5559 5555 5553 5549 5549 5545 5543 5541 5539 5538 5537 5537 5537 5537 5539 5541 5543 5546 5548 5551 5556 5560 5566 5571 5577 5585 5592 5601 5608 5616 5623 5631 5638 5645
5601 5597 5592 5587 5581 5576 5572 5568 5564 5558 5554 5549 5547 5544 5542 5539 5537 5535 5533 5532 5531 5531 5531 5531 5532 5534 5536 5539 5541 5545 5549 5553 5557 5563 5569 5576 5584 5592 5599 5607 5614 5622 5629 5637
5594 5590 5585 5581 5575 5569 5565 5562 5557 5552 5548 5543 5540 5538 5536 5533 5531 5529 5527 5525 5525 5524 5524 5524 5525 5527 5529 5531 5534 5537 5541 5545 5549 5555 5561 5568 5575 5583 5591 5598 5606 5613 5620 5628
5587 5582 5576 5573 5568 5562 5559 5556 5550 5545 5541 5537 5533 5531 5528 5526 5524 5522 5520 5519 5518 5517 5517 5517 5518 5519 5521 5523 5526 5529 5533 5537 5542 5547 5553 5560 5567 5574 5581 5588 5596 5604 5611 5619
5580 5573 5567 5562 5559 5554 5555 5548 5542 5538 5534 5530 5526 5524 5521 5518 5516 5515 5513 5511 5510 5509 5509 5509 5510 5511 5513 5515 5518 5522 5526 5530 5535 5540 5546 5552 5559 5566 5573 5580 5587 5595 5602 5609
5572 5565 5559 5553 5548 5544 5544 5539 5534 5529 5527 5523 5519 5516 5513 5511 5509 5508 5505 5503 5502 5501 5501 5501 5502 5503 5505 5507 5510 5514 5518 5523 5528 5533 5538 5544 5551 5557 5564 5571 5578 5585 5592 5599
5563 5557 5552 5546 5539 5536 5537 5530 5524 5521 5518 5516 5511 5508 5506 5503 5501 5501 5498 5496 5494 5493 5492 5493 5494 5495 5497 5499 5502 5506 5510 5515 5520 5525 5531 5536 5542 5549 5555 5562 5568 5575 5582 5589
5553 5548 5544 5537 5530 5527 5527 5521 5516 5513 5511 5506 5503 5500 5497 5495 5492 5491 5489 5487 5485 5484 5484 5484 5485 5486 5488 5491 5494 5497 5501 5506 5512 5517 5522 5528 5533 5540 5546 5553 5559 5566 5572 5579
5543 5539 5534 5529 5523 5523 5516 5511 5508 5505 5501 5497 5494 5491 5489 5486 5484 5481 5479 5478 5476 5475 5474 5474 5476 5478 5480 5482 5485 5489 5493 5498 5503 5508 5514 5519 5525 5530 5536 5543 5550 5557 5563 5569
5534 5531 5525 5521 5519 5513 5506 5502 5498 5495 5491 5488 5485 5483 5480 5477 5475 5473 5471 5469 5467 5466 5466 5466 5467 5468 5471 5473 5476 5481 5485 5489 5494 5499 5504 5510 5515 5521 5527 5534 5540 5547 5553 5559
5524 5519 5513 5509 5508 5503 5497 5492 5489 5485 5482 5478 5476 5473 5470 5468 5466 5464 5462 5460 5459 5458 5457 5457 5458 5459 5462 5464 5467 5471 5476 5480 5484 5490 5495 5500 5505 5511 5517 5524 5530 5537 5544 5550
5514 5507 5501 5498 5496 5491 5488 5483 5479 5475 5472 5469 5466 5463 5460 5458 5456 5455 5453 5452 5450 5450 5449 5449 5450 5452 5454 5456 5459 5463 5466 5471 5475 5480 5485 5490 5496 5501 5508 5515 5521 5528 5535 5541
5503 5496 5490 5488 5485 5479 5476 5472 5469 5465 5462 5459 5456 5454 5451 5449 5447 5446 5445 5444 5443 5442 5442 5442 5443 5445 5447 5449 5451 5454 5457 5461 5466 5471 5476 5481 5487 5493 5499 5506 5513 5519 5526 5533